Location: Unspecified
(33.6682°S, 0.0000°E)
Time: 17:02:07
(UTC+00:00)

Tiros 1 despin weight - Pass Details

Date: 23 June 2019
Orbit: 594 x 642 km, 48.2° (Epoch: 20 July)

Event Time Altitude Azimuth Distance (km) Brightness Sun altitude
Rises 10:24:06 0° 298° (WNW) 2,902 ? 28.3°
Reaches altitude 10° 10:26:26 10° 293° (WNW) 2,008 ? 28.5°
Maximum altitude 10:30:59 56° 214° (SW) 765 ? 28.9°
Drops below altitude 10° 10:35:38 10° 136° (SE) 2,049 ? 29.3°
Sets 10:38:02 0° 131° (SE) 2,966 ? 29.5°
